This is the latest recevied weather packets stored in our database for station/object DL2AKT-20. If no packets are shown the sender has not sent any weather packets the latest 10 day(s).
| Time | Temp. | Humidity | Pressure | Rain* | Wind** | Luminosity | Snow |
|---|---|---|---|---|---|---|---|
| 1777915975 | 25° C | 33% | 1015.5 hPa | - | - | - | - |
| 1777915074 | 25° C | 33% | 1015.3 hPa | - | - | - | - |
| 1777914173 | 25.56° C | 32% | 1015.2 hPa | - | - | - | - |
| 1777913273 | 25.56° C | 32% | 1015.3 hPa | - | - | - | - |
| 1777912373 | 25.56° C | 32% | 1015.3 hPa | - | - | - | - |
| 1777911477 | 25° C | 33% | 1015.3 hPa | - | - | - | - |
| 1777910577 | 26.11° C | 31% | 1015.2 hPa | - | - | - | - |
| 1777909677 | 26.11° C | 32% | 1015.3 hPa | - | - | - | - |
| 1777908776 | 26.11° C | 32% | 1015.4 hPa | - | - | - | - |
| 1777907876 | 26.67° C | 31% | 1015.5 hPa | - | - | - | - |
| 1777906976 | 26.67° C | 30% | 1015.4 hPa | - | - | - | - |
| 1777906076 | 27.78° C | 29% | 1015.5 hPa | - | - | - | - |
| 1777905176 | 29.44° C | 27% | 1015.6 hPa | - | - | - | - |
| 1777904276 | 28.33° C | 29% | 1015.6 hPa | - | - | - | - |
| 1777903376 | 27.78° C | 29% | 1015.7 hPa | - | - | - | - |
| 1777902475 | 27.78° C | 30% | 1015.9 hPa | - | - | - | - |
| 1777901575 | 27.22° C | 31% | 1015.9 hPa | - | - | - | - |
| 1777900675 | 27.22° C | 31% | 1016.1 hPa | - | - | - | - |
| 1777899775 | 26.67° C | 31% | 1016.3 hPa | - | - | - | - |
| 1777898875 | 26.67° C | 31% | 1016.3 hPa | - | - | - | - |
| 1777897975 | 26.67° C | 32% | 1016.4 hPa | - | - | - | - |
| 1777897075 | 26.11° C | 32% | 1016.4 hPa | - | - | - | - |
| 1777896174 | 25.56° C | 32% | 1016.5 hPa | - | - | - | - |
| 1777895274 | 25° C | 33% | 1016.6 hPa | - | - | - | - |
| 1777894374 | 25° C | 34% | 1016.7 hPa | - | - | - | - |
* Rain since midnight (hover to see other rain measurements)
** Current wind speed in m/s (hover to see current wind gust speed)